60-min_data_Yukidori_2010.csv,,,,,,,,
TIMESTAMP,Wind_speed,Wind_direction,Air_Temp,Humidity,Solar radiation,PAR,UV,Air pressure
(yyyy/mm/dd hh:mm),(m/s),(degree),(��),(%),(W/m^2),(micro-mol/m^2/s),(W/m^2),(hPa)
,Avg,Avg,Smp,Smp,Avg,Avg,Avg,Smp
2010/1/1 0:00,8.41,112.5,0.602,67.95,9.445943,25.4654,0.715489,993.5383
2010/1/1 1:00,7.55,111.8,0.643,68.12,3.60011,11.32913,0.4388795,993.7885
2010/1/1 2:00,8.89,109.7,0.601,68.69,7.043641,20.2591,0.6956109,993.9625
2010/1/1 3:00,8.58,103.4,0.567,63.8,13.42412,36.91777,1.207512,994.8987
2010/1/1 4:00,6.469,100.2,1.008,61.32,36.46536,93.20886,2.471033,995.2902
2010/1/1 5:00,6.101,107.3,1.158,53.47,95.04276,220.5172,5.471565,995.167
2010/1/1 6:00,4.61,98,1.298,53.27,81.36562,213.2741,6.25228,995.4162
2010/1/1 7:00,1.715,19.51,1.351,54.8,61.46801,182.3183,5.583185,997.0363
2010/1/1 8:00,1.903,88.1,1.967,51.26,58.80532,181.0638,5.522154,997.4101
2010/1/1 9:00,2.184,239.9,-0.18,91.6,64.39581,205.7767,6.42927,997.1427
2010/1/1 10:00,2.081,218.4,0.52,86.9,105.9685,320.8222,10.62484,996.8407
2010/1/1 11:00,2.006,218.8,2.116,67.51,255.9548,695.9183,21.45399,996.0736
2010/1/1 12:00,1.997,288.4,2.067,75.76,280.2072,744.4815,22.04782,996.4036
2010/1/1 13:00,1.552,303.9,1.437,78.35,267.757,696.5961,20.29509,996.1544
2010/1/1 14:00,0.687,312.447,2.612,71.3,232.6807,616.3877,17.97075,996.0298
2010/1/1 15:00,1.176,224.6,4.417,52.64,534.5075,1225.863,33.6121,995.6561
2010/1/1 16:00,1.794,274.8,5.355,46.96,649.9709,1381.591,35.17119,995.1578
2010/1/1 17:00,1.673,318.689,4.537,50,450.5466,981.0443,25.5312,995.0332
2010/1/1 18:00,1.852,286.7,4.458,52.72,295.3651,639.6546,18.90015,994.2681
2010/1/1 19:00,1.571,358.85,2.695,70.82,205.3003,453.4705,14.0232,994.3925
2010/1/1 20:00,1.255,353.39,2.601,71.6,233.8815,477.0381,11.12953,994.3925
2010/1/1 21:00,0.688,316.155,3.232,63.71,142.6197,290.3828,6.887366,994.3925
2010/1/1 22:00,1.098,3.99,0.76,81.9,65.53235,145.2113,4.044027,994.8905
2010/1/1 23:00,0.495,262.6,0.968,73.87,21.7202,56.98465,2.355625,995.1394
2010/1/2 0:00,0.888,243,0.183,79.11,25.35055,52.02343,1.381908,995.2639
2010/1/2 1:00,0.653,308,-0.202,85.3,7.860158,23.11697,0.7930875,995.3884
2010/1/2 2:00,0.54,293,-0.367,86.7,7.189866,20.73886,0.7265773,995.6772
2010/1/2 3:00,0.596,321.03,-0.493,87,6.931355,21.66186,0.7356022,995.9052
2010/1/2 4:00,0.559,292.7,-0.361,87,16.43724,46.93492,1.568099,996.2788
2010/1/2 5:00,0.497,235.4,0.336,80.7,22.89646,65.41729,2.214477,996.4034
2010/1/2 6:00,0.648,242.4,0.679,78.4,24.87437,74.36662,2.439762,996.528
2010/1/2 7:00,0.44,277,1.356,66.06,34.74425,106.446,3.577685,996.7772
2010/1/2 8:00,1.472,109,2.614,51.21,122.1501,334.4247,10.34219,996.528
2010/1/2 9:00,1.385,117,3.618,50.64,194.2858,516.7705,15.47868,996.6526
2010/1/2 10:00,2.011,309.2,0.812,75.82,200.0484,519.8506,15.64659,997.2755
2010/1/2 11:00,1.345,240.6,2.696,65.79,316.5728,808.5609,24.01818,997.2755
2010/1/2 12:00,2.122,241.4,1.323,92.7,328.8072,856.274,23.23148,997.6492
2010/1/2 13:00,1.86,265.1,0.756,95.4,269.2515,689.6117,19.1774,997.7738
2010/1/2 14:00,1.928,237.8,1.184,88.5,256.0501,691.5584,20.55687,997.8983
2010/1/2 15:00,1.965,278.3,1.603,79.78,214.668,601.599,17.3266,997.7738
2010/1/2 16:00,1.858,284.7,2.189,69.78,226.5744,624.4887,17.33526,997.8983
2010/1/2 17:00,1.618,265.6,2.943,61.08,209.8066,566.1616,15.38214,997.6492
2010/1/2 18:00,1.77,314.571,1.435,79.86,244.7698,624.3189,16.71319,998.0229
2010/1/2 19:00,1.286,236.5,1.979,72.11,217.2134,536.5508,13.28671,998.0229
2010/1/2 20:00,1.684,243.4,1.853,71.94,133.3162,334.7413,8.475367,998.1451
2010/1/2 21:00,2.208,289.3,1.393,72.01,92.54633,221.2437,5.509577,998.5139
2010/1/2 22:00,1.585,303.8,0.64,68.79,55.56518,130.8288,3.169591,998.6458
2010/1/2 23:00,1.431,272.4,0.429,75.05,33.96534,76.35778,1.793748,999.0195
2010/1/3 0:00,1.123,247.1,0.471,72.85,13.3489,32.07906,0.9197769,998.895
2010/1/3 1:00,1.79,252.1,0.505,72.92,10.73229,26.16942,0.8160746,998.895
2010/1/3 2:00,1.785,233.3,-0.607,86.6,12.56234,31.79793,1.076578,998.7704
2010/1/3 3:00,0.66,190.6,-0.405,86.8,22.48555,54.19749,1.80496,998.5212
2010/1/3 4:00,0.832,22.8,-0.908,92,58.96172,132.3381,3.658456,998.3967
2010/1/3 5:00,0.617,330.51,-0.865,87,88.69391,212.4641,5.76119,998.2721
2010/1/3 6:00,0.832,329.12,-1.074,85.6,127.8185,317.7654,8.209377,998.0229
2010/1/3 7:00,0.481,277.4,0.349,75.32,151.1808,374.566,10.8457,997.7738
2010/1/3 8:00,1.045,307.5,0.936,75.58,275.585,643.1171,18.24756,997.2755
2010/1/3 9:00,1.452,229.2,2.111,63.21,461.1482,1016.966,26.80695,997.4
2010/1/3 10:00,1.965,265.4,2.596,59.84,446.5625,1007.362,29.81932,997.0263
2010/1/3 11:00,1.987,228.2,2.777,60.72,592.5738,1281.481,35.90054,996.9017
2010/1/3 12:00,1.601,236.7,2.984,60.7,482.1424,1118.793,32.59406,996.8776
2010/1/3 13:00,1.604,341.17,2.241,67.36,543.5746,1274.718,36.76436,996.509
2010/1/3 14:00,2.283,313.723,2.108,69.06,561.7695,1309.041,35.89182,996.6334
2010/1/3 15:00,2.005,274.8,3.232,60.89,473.4462,1110.893,31.96651,996.3844
2010/1/3 16:00,1.572,225,4.278,57.45,547.3071,1211.589,31.66709,996.0109
2010/1/3 17:00,1.685,236.1,3.985,60.14,421.0041,972.2021,24.26661,995.6375
2010/1/3 18:00,1.656,295.8,4.237,57.18,353.3437,790.5197,19.81682,995.3884
2010/1/3 19:00,1.757,315.556,1.704,73.65,241.3395,557.9778,13.99809,995.6375
2010/1/3 20:00,0.768,289.5,2.856,61.97,208.7037,445.6714,10.44434,995.7619
2010/1/3 21:00,1.09,313.973,2.142,62.55,83.98067,196.0784,5.788379,995.7619
2010/1/3 22:00,0.844,343.75,1.926,64.82,45.10253,104.7803,3.611512,995.8864
2010/1/3 23:00,0.79,98.2,3.189,40.68,18.22357,47.98073,1.926341,995.7619
2010/1/4 0:00,1.982,113.4,2.729,42.41,9.194689,25.60485,1.069764,995.8864
2010/1/4 1:00,1.319,100.6,2.143,47.04,6.474939,21.00317,0.9698128,995.6375
2010/1/4 2:00,3.587,112.4,2.182,39.88,10.85325,30.17665,1.144081,995.1394
2010/1/4 3:00,4.044,106.3,2.173,39.71,24.13776,60.33595,2.086962,994.766
2010/1/4 4:00,3.315,118.5,1.896,39.06,42.64654,105.0545,3.47272,994.7747
2010/1/4 5:00,4.299,111.2,1.266,40.77,68.00655,167.3516,5.741379,994.6594
2010/1/4 6:00,4.543,108.5,0.978,38.5,99.05351,239.8489,8.622127,994.161
2010/1/4 7:00,3.631,103.8,1.382,37.31,140.057,345.1623,11.47765,993.5381
2010/1/4 8:00,4.788,107.7,1.866,37.65,257.8348,569.9304,17.82309,993.289
2010/1/4 9:00,3.252,115.7,2.844,32.11,342.1387,718.2536,22.81497,993.289
2010/1/4 10:00,2.079,251.5,3.23,30.34,324.3662,695.9462,24.95949,993.5381
2010/1/4 11:00,2.257,93.1,4.084,27.86,719.8479,1414.917,37.74324,993.4136
2010/1/4 12:00,2.012,77.4,4.831,30.2,782.9198,1570.616,41.69024,993.0399
2010/1/4 13:00,2.138,76.7,4.684,28.43,739.4371,1560.817,41.31395,992.4038
2010/1/4 14:00,2.016,79.3,4.463,29.65,459.2422,1103.623,32.94789,992.4006
2010/1/4 15:00,1.827,87,4.74,28.97,448.9136,1090.504,31.66651,992.2761
2010/1/4 16:00,1.635,252.7,4.657,29.17,384.1526,903.588,26.97193,992.1516
2010/1/4 17:00,1.519,33.2,4.113,31.71,295.8056,723.2266,21.60824,991.9026
2010/1/4 18:00,2.01,43.3,2.226,56.88,257.9808,628.4933,17.89789,992.2761
2010/1/4 19:00,2.083,309.8,1.849,60.24,231.3269,542.4783,14.35581,992.2761
2010/1/4 20:00,1.548,265.9,2.059,52.05,172.863,403.3301,10.31146,992.2761
2010/1/4 21:00,1.497,263.4,2.643,47.61,127.158,285.537,6.786624,992.4006
2010/1/4 22:00,1.429,242.8,2.307,40.27,59.84524,136.9443,3.546178,992.6496
2010/1/4 23:00,1.129,58.5,1.931,37.29,30.06533,67.2403,2.032219,993.0231
2010/1/5 0:00,1.82,77.9,1.615,36.79,30.91928,56.68782,1.32165,993.2721
2010/1/5 1:00,1.859,72.2,1.321,36.96,21.38089,42.72382,1.021891,993.8945
2010/1/5 2:00,1.633,88.1,1.099,38.89,21.40552,46.62992,1.282409,994.3402
2010/1/5 3:00,2.163,101.7,0.512,39.31,41.42225,88.66766,2.219845,994.6594
2010/1/5 4:00,1.758,129.8,0.428,40.3,84.8276,186.37,4.03687,994.9085
2010/1/5 5:00,1.514,107.2,0.544,40.88,123.5361,285.1541,6.916149,994.7839
2010/1/5 6:00,3.72,104.5,0.735,39.52,168.8023,402.7643,10.60487,994.9085
2010/1/5 7:00,2.944,100.8,0.971,37.96,201.2867,498.0537,14.01161,995.0331
2010/1/5 8:00,2.319,97.5,1.433,37.89,265.6022,654.0745,18.62575,995.1577
2010/1/5 9:00,3.147,92.4,2.152,34.22,405.0926,923.3316,25.63719,995.2822
2010/1/5 10:00,2.826,84.5,2.828,37.61,510.7134,1104.722,31.31755,995.5314
2010/1/5 11:00,2.29,61.9,3.164,37.51,682.6427,1399.442,38.1403,995.656
2010/1/5 12:00,1.747,332.66,3.866,45.86,851.8683,1740.005,44.37472,995.5314
2010/1/5 13:00,2.633,251.8,3.872,37.84,882.4655,1799.922,45.17225,995.1401
2010/1/5 14:00,2.946,268.7,4.152,39.26,525.1255,1164.539,34.09187,995.1394
2010/1/5 15:00,1.591,62.8,4.363,39.49,646.0883,1329.136,36.07458,994.766
2010/1/5 16:00,1.608,0.24,3.609,44.65,463.5692,1025.382,28.53444,994.766
2010/1/5 17:00,2.151,307.5,3.479,48.39,295.2455,715.2806,20.436,994.8905
2010/1/5 18:00,1.665,310.1,2.542,52.22,244.3552,568.156,16.66938,995.015
2010/1/5 19:00,1.134,7.03,3.209,47.74,217.0091,475.2891,13.57395,994.766
2010/1/5 20:00,1.109,59.9,2.889,44.31,207.5819,429.4377,10.87022,994.517
2010/1/5 21:00,1.512,285.2,2.642,45.98,168.9995,340.986,6.8999,994.517
2010/1/5 22:00,1.909,255.2,2.267,47.23,48.50697,116.4658,3.011608,994.3925
2010/1/5 23:00,2.194,274.3,1.221,54.84,27.05546,61.43139,1.883904,994.517
2010/1/6 0:00,0.888,288.3,0.967,51.59,15.92979,36.26596,1.16266,994.517
2010/1/6 1:00,0.817,248.1,1.141,50.92,9.71504,22.9442,0.8219477,994.268
2010/1/6 2:00,1.755,237.3,1.059,53.26,8.081327,21.98148,0.7901194,993.77
2010/1/6 3:00,2.511,190.6,2.775,43.34,16.31436,41.58507,1.44624,993.4783
2010/1/6 4:00,3.627,119.5,2.482,45.66,27.06684,73.52934,2.332219,993.6627
2010/1/6 5:00,3.832,116.7,2.148,51.58,41.51381,117.5543,3.426721,994.0365
2010/1/6 6:00,3.605,105.4,1.665,57.22,50.49727,146.9819,4.639074,994.161
2010/1/6 7:00,2.742,105.1,1.868,58.07,85.02677,239.3224,7.473599,994.161
2010/1/6 8:00,1.344,111.7,2.937,51.38,135.5333,374.2657,11.26957,993.9119
2010/1/6 9:00,1.629,69.6,3.351,50.15,170.505,473.3922,14.1117,994.0365
2010/1/6 10:00,1.799,339.33,3.354,53.11,207.1317,580.3242,16.92328,993.9119
2010/1/6 11:00,1.5,331.75,3.147,64.32,196.9176,565.7436,16.76161,994.4102
2010/1/6 12:00,1.804,302.3,2.064,72.51,206.8898,602.8774,17.66315,994.7839
2010/1/6 13:00,1.796,272,2.441,75.6,259.8633,728.9478,20.95938,995.0331
2010/1/6 14:00,1.799,241.9,2.649,76.57,262.2772,733.4047,21.15503,994.9085
2010/1/6 15:00,1.53,265.9,3.489,71.5,304.0151,819.605,22.97562,994.8898
2010/1/6 16:00,1.77,335.61,1.938,85.5,238.4471,645.7034,17.8243,995.1755
2010/1/6 17:00,1.51,279,1.616,93.4,190.6804,510.1174,13.4458,995.2639
2010/1/6 18:00,1.664,241.7,2.315,86.4,122.4384,346.8828,9.069941,995.3884
2010/1/6 19:00,1.189,263.6,1.989,86.9,72.08536,216.5281,6.315468,995.5129
2010/1/6 20:00,0.984,258.9,1.258,91.4,60.0224,175.3842,5.083474,995.8026
2010/1/6 21:00,0.844,5.93,2.648,69.6,33.50508,98.79263,2.930712,996.1471
2010/1/6 22:00,3.1,73.8,2.232,68.41,17.54633,52.97542,1.552474,996.7766
2010/1/6 23:00,1.409,93.5,2.609,62.58,7.675485,24.44222,0.774919,996.7772
2010/1/7 0:00,1.165,155.8,2.104,76.83,3.137055,10.46686,0.4020284,997.1509
2010/1/7 1:00,1.416,354.04,2.257,66.9,2.251467,7.192493,0.3647576,996.7772
2010/1/7 2:00,2.2,234.9,2.796,57.15,2.578112,7.818867,0.3401633,997.2755
2010/1/7 3:00,1.941,126.3,2.107,64.57,8.05878,26.22976,1.016997,996.0297
2010/1/7 4:00,1.497,118.8,2.696,62.39,14.36283,46.14475,1.630426,995.9052
2010/1/7 5:00,5.667,115.3,2.781,58.55,26.56865,84.69405,2.90522,994.0365
2010/1/7 6:00,8.48,110.3,3.535,56.69,49.67183,151.8196,5.034647,994.0365
2010/1/7 7:00,6.822,106,3.829,58.01,79.09914,245.659,7.685448,994.9085
2010/1/7 8:00,2.434,258.1,4.333,56.92,158.9304,445.7216,13.2312,994.4102
2010/1/7 9:00,6.11,113.9,4.583,54.34,137.5379,428.391,13.11908,993.5381
2010/1/7 10:00,3.719,104.4,4.964,53.73,258.6962,716.29,19.28856,993.4136
2010/1/7 11:00,3.291,336.12,5.923,52.47,559.4297,1321.64,32.28675,992.7907
2010/1/7 12:00,2.858,300.2,5.814,51.85,622.8148,1400.895,35.13173,993.7874
2010/1/7 13:00,2.228,338.16,6.384,50.03,481.8412,1122.033,32.12548,993.2821
2010/1/7 14:00,2.83,48.8,7.657,45.28,733.822,1563.75,39.80418,993.2736
2010/1/7 15:00,2.744,77.6,8.06,44.5,772.983,1533.587,39.64168,992.8986
2010/1/7 16:00,2.605,278.2,4.868,58.27,486.6553,1087.369,29.68765,993.521
2010/1/7 17:00,2.621,249.1,5.748,53.79,372.036,861.017,22.97593,992.774
2010/1/7 18:00,2.722,239.1,5.664,54.5,327.8103,732.1744,19.30799,992.4006
2010/1/7 19:00,2.212,268.3,4.568,59.8,320.1635,646.2226,16.30089,992.2761
2010/1/7 20:00,2.158,240.5,3.544,63.36,134.8969,292.9611,9.468296,992.2761
2010/1/7 21:00,1.632,223.6,3.298,67.47,66.08189,149.8587,5.868282,992.0271
2010/1/7 22:00,0.882,307.3,4.825,53.58,48.11508,104.3055,3.56565,991.7781
2010/1/7 23:00,2.241,69.3,5.537,52.02,36.52487,74.22286,2.056786,992.0271
2010/1/8 0:00,1.695,73.5,5.329,50.77,19.41546,40.848,1.093175,992.1516
2010/1/8 1:00,3.459,102.3,4.741,50.3,9.499615,24.42518,0.7504317,992.4006
2010/1/8 2:00,4.526,104.8,4.219,45.45,14.52016,36.02976,1.192366,992.5251
2010/1/8 3:00,6.515,109.6,4.33,37.4,25.30819,57.51219,1.985858,993.2721
2010/1/8 4:00,3.176,96.8,4.78,35.36,45.94064,108.1317,3.107089,994.1843
2010/1/8 5:00,2.315,148.1,4.83,34.51,68.58862,178.3791,5.112854,994.3143
2010/1/8 6:00,3.785,104,4.58,32.85,118.1579,298.5426,8.744557,994.9081
2010/1/8 7:00,1.938,105.9,4.703,33.49,161.3648,420.623,12.50134,995.0331
2010/1/8 8:00,1.892,97.9,4.957,36.18,237.5214,588.427,16.99106,995.4068
2010/1/8 9:00,2.595,156.2,5.964,32.91,379.3731,849.0046,23.92352,994.7747
2010/1/8 10:00,3.896,118.2,6.509,31.86,655.3181,1284.949,33.92469,994.1848
2010/1/8 11:00,4.236,108.6,6.8,34,743.8126,1432.186,38.49178,993.521
2010/1/8 12:00,3.795,99.2,7.008,37.64,790.9462,1528.54,41.2753,992.8986
2010/1/8 13:00,3.435,103.3,6.123,42.31,805.1422,1564.582,42.25341,992.774
2010/1/8 14:00,2.079,311.805,6.125,36.2,746.7032,1504.528,40.93759,992.4006
2010/1/8 15:00,1.866,306.9,6.701,39.69,694.631,1364.094,37.55739,992.0271
2010/1/8 16:00,1.978,298.2,5.741,41.05,587.7192,1163.264,31.69385,991.7781
2010/1/8 17:00,1.722,319.71,5.745,33.54,573.1168,1118.313,28.88691,991.1556
2010/1/8 18:00,2.209,295.6,5.531,35.2,466.4333,903.6531,22.77519,990.7822
2010/1/8 19:00,2.494,289.3,4.693,41.68,357.7422,685.2157,16.69153,990.4087
2010/1/8 20:00,2.458,271.1,4.316,39.14,251.9342,477.5144,11.21722,990.1597
2010/1/8 21:00,2.189,260.6,4.147,41.75,157.5926,297.526,6.884316,989.6616
2010/1/8 22:00,1.587,267.5,4.48,39.85,85.50135,161.6737,3.891621,989.2881
2010/1/8 23:00,2.372,95.6,3.143,40.19,35.76246,74.65776,2.1175,989.2881
2010/1/9 0:00,2.588,84.5,1.801,47.83,14.08955,38.56191,1.24131,989.7861
2010/1/9 1:00,3.755,101.8,0.807,41.05,7.710839,28.00365,1.021378,989.2881
2010/1/9 2:00,6.675,109.3,0.842,38.61,9.201643,33.1343,1.268589,989.5371
2010/1/9 3:00,6.655,111.6,0.508,36.55,13.0517,48.29307,2.162432,989.6616
2010/1/9 4:00,6.231,108.3,-0.156,40.18,18.64383,68.94695,3.829593,989.5371
2010/1/9 5:00,6.303,103.6,0.093,37.53,25.10546,90.73087,6.192454,989.8936
2010/1/9 6:00,6.048,108.5,-0.325,40.2,31.36507,111.8257,8.958742,989.6763
2010/1/9 7:00,5.864,106.3,0.651,39.25,173.8523,355.3257,13.99871,989.4271
2010/1/9 8:00,5.642,109.3,1.021,41.26,472.4468,876.45,22.67795,989.3026
2010/1/9 9:00,5.952,103.8,2.129,40.1,579.2664,1086.177,28.69356,989.3026
2010/1/9 10:00,4.668,104.9,2.684,40.84,673.0074,1274.566,33.81665,989.3026
2010/1/9 11:00,3.976,101.5,3.321,39.69,665.2965,1304.765,36.39467,989.178
2010/1/9 12:00,4.881,102.5,3.53,39.95,529.8969,1136.771,33.82713,989.178
2010/1/9 13:00,5.911,112.7,3.948,40.42,490.798,1105.261,33.09262,989.1609
2010/1/9 14:00,4.864,114.9,4.579,36.07,580.9825,1283.476,36.00002,988.8619
2010/1/9 15:00,5.075,114,4.64,36.01,716.3662,1429.489,37.9907,988.5419
2010/1/9 16:00,3.769,109.4,5.331,39.2,585.5822,1164.152,32.08274,988.4169
2010/1/9 17:00,3.112,105.1,4.988,43,419.4998,860.1365,25.04669,988.0433
2010/1/9 18:00,3.001,102.6,4.68,45.31,321.1582,694.1614,18.51216,988.1678
2010/1/9 19:00,1.439,93.5,4.447,46.26,138.6173,344.9263,10.08736,988.0433
2010/1/9 20:00,3.076,113.9,4.447,33.59,93.91196,225.3044,7.000595,988.1678
2010/1/9 21:00,3.598,129.8,3.691,43.92,83.49001,182.0851,5.822284,988.4169
2010/1/9 22:00,3.096,97.9,3.132,50.85,68.63397,147.2964,3.069442,988.9148
2010/1/9 23:00,3.506,93.7,2.898,54.82,11.48552,32.55644,0.9099479,989.1638
2010/1/10 0:00,2.727,105.3,2.284,57.44,5.051301,15.74465,0.5745352,989.2883
2010/1/10 1:00,4.573,104.9,1.979,60.22,2.409453,7.602127,0.3208163,990.2489
2010/1/10 2:00,3.571,113.4,2.021,57.79,3.411208,10.81044,0.3722214,990.5483
2010/1/10 3:00,5.419,104.9,2.312,57.66,5.718853,18.84388,0.5806265,990.6729
2010/1/10 4:00,7.141,105.4,2.429,56.03,14.71021,45.15336,1.422386,990.6729
2010/1/10 5:00,4.907,102.2,2.389,52.94,25.74488,79.42718,2.620473,991.0466
2010/1/10 6:00,4.774,99.2,2.269,53.36,54.39891,155.8466,4.848373,990.9221
2010/1/10 7:00,4.079,106.6,2.57,51.14,75.20966,215.7289,6.61963,991.0466
2010/1/10 8:00,1.774,86.8,3.2,42.51,107.8975,309.417,9.838669,991.1712
2010/1/10 9:00,3.446,106.4,3.828,38.98,204.4303,535.4378,15.87109,991.9187
2010/1/10 10:00,1.869,84.8,4.874,35.07,327.3833,789.96,23.06646,991.9187
2010/1/10 11:00,1.686,218.7,4.182,51.38,369.0071,897.2849,27.43953,991.7941
2010/1/10 12:00,2.252,240.6,4.664,46.52,436.9202,995.7684,30.44492,991.7941
2010/1/10 13:00,1.956,274,4.914,50.92,651.4597,1408.376,38.68972,991.5449
2010/1/10 14:00,2.039,294.2,5.175,45.21,596.5411,1326.219,37.15922,991.405
2010/1/10 15:00,1.672,293.1,5.374,40.66,558.2985,1228.074,33.71733,991.4047
2010/1/10 16:00,1.624,70.3,5.412,37.93,582.0168,1202.761,32.03264,991.1556
2010/1/10 17:00,1.802,80,5.412,41.39,577.115,1144.334,28.90694,991.1556
2010/1/10 18:00,1.449,47.8,4.489,46.04,451.6711,912.4089,22.15265,991.0312
2010/1/10 19:00,1.445,341.23,3.937,48.01,153.6809,358.2217,10.91107,990.6577
2010/1/10 20:00,1.805,298,2.959,54.29,80.14176,196.4788,6.711187,990.7822
2010/1/10 21:00,1.333,280.9,2.726,51.47,59.32331,140.5106,4.55145,990.6577
2010/1/10 22:00,1.212,309.7,2.592,55.45,37.04113,87.33108,2.900457,991.0312
2010/1/10 23:00,1.549,110.8,2.601,53.92,16.35773,40.8602,1.331014,990.9067
2010/1/11 0:00,1.456,103.4,2.268,52.67,6.032115,18.16315,0.690291,990.9067
2010/1/11 1:00,0.736,70.6,1.936,58.39,4.445498,14.11291,0.5639105,990.9067
2010/1/11 2:00,0.665,287.9,1.891,59.58,7.073235,19.55143,0.6994234,990.7822
2010/1/11 3:00,0.633,292.5,1.35,64.67,15.06466,38.01846,1.364239,990.6445
2010/1/11 4:00,0.652,334.79,1.643,58.16,36.8103,85.47662,2.691625,990.2992
2010/1/11 5:00,2.954,115.7,1.687,44.51,98.7677,209.3663,5.464256,989.8008
2010/1/11 6:00,3.112,110.1,1.315,40.91,120.4781,263.485,8.912482,989.5517
2010/1/11 7:00,4.085,118.8,1.758,39.69,219.9937,451.8906,14.59945,988.9288
2010/1/11 8:00,3.735,113.6,2.925,40.16,437.4779,851.1539,22.80401,988.5551
2010/1/11 9:00,2.415,88.8,3.531,37.89,593.2618,1144.418,29.47083,988.4305
2010/1/11 10:00,2.906,93.4,4.369,35.33,647.3546,1256.877,33.4482,987.6975
2010/1/11 11:00,2.164,340.98,3.443,44.43,723.3957,1409.899,37.93327,987.2964
2010/1/11 12:00,2.146,304.3,3.984,40.96,769.2275,1506.687,40.7308,987.0474
2010/1/11 13:00,2.094,304.6,4.11,42.28,792.3367,1553.578,41.85393,986.5494
2010/1/11 14:00,1.874,309.3,3.846,40.65,690.553,1425.398,39.58492,986.3005
2010/1/11 15:00,1.464,318.301,4.944,39.08,603.2695,1253.857,35.11539,985.927
2010/1/11 16:00,1.547,358.15,5.916,34.12,527.5303,1097.062,30.60783,985.429
2010/1/11 17:00,1.627,349.6,4.737,40.12,441.1653,913.5919,25.60862,984.8065
2010/1/11 18:00,2.268,299.3,4.902,39.85,508.0836,997.2812,23.35695,984.5576
2010/1/11 19:00,1.566,304.2,4.649,44.16,369.865,711.0494,16.60036,984.1841
2010/1/11 20:00,1.46,318.958,3.219,55.67,243.0455,464.0463,10.85927,983.8106
2010/1/11 21:00,1.102,311.015,3.023,52.85,149.0662,283.8412,6.580109,983.7856
2010/1/11 22:00,1.256,298,2.856,49.93,78.08499,148.2901,3.632745,983.5046
2010/1/11 23:00,1.19,330.62,2.929,47.83,33.65063,68.30822,1.901922,983.433
2010/1/12 0:00,1.871,112.1,1.634,50.81,20.45339,41.83292,1.052621,983.188
2010/1/12 1:00,2.988,110.7,1.109,47.09,13.08498,29.30575,0.765552,983.188
2010/1/12 2:00,3.775,118.7,0.465,48.69,19.95394,40.48471,1.014184,983.0635
2010/1/12 3:00,3.171,112.5,0.926,46.93,31.55237,68.03488,1.638942,982.939
2010/1/12 4:00,2.557,109.9,0.916,47.21,39.30076,92.19128,2.659011,982.8146
2010/1/12 5:00,3.631,113.2,0.665,44.43,62.0069,149.2321,4.50313,982.4479
2010/1/12 6:00,3.442,114,0.848,46.57,90.43653,226.6427,6.765152,982.572
2010/1/12 7:00,1.806,108.2,1.35,49.64,115.8227,305.9518,9.243185,982.5754
2010/1/12 8:00,1.024,309.7,1.19,49.34,178.5713,459.122,13.6889,982.7
2010/1/12 9:00,1.414,294.9,2.023,50.05,295.5353,702.2015,20.35359,982.5754
2010/1/12 10:00,1.21,348.78,1.435,56.24,334.819,809.0429,23.89991,982.5754
2010/1/12 11:00,0.92,349.6,2.189,54.22,400.9904,973.4297,28.18592,982.7
2010/1/12 12:00,2.072,279.8,2.484,49.63,453.9266,1066.983,31.16766,982.4607
2010/1/12 13:00,2.424,304.3,2.823,49.08,457.4989,1080.637,31.7201,982.1925
2010/1/12 14:00,1.714,317.268,2.928,57.27,469.3536,1098.462,31.90822,981.8187
2010/1/12 15:00,2.05,273.4,3.481,43.27,485.7362,1099.236,31.3128,981.6942
2010/1/12 16:00,2.352,264.2,4.027,43.09,455.9885,1014.174,28.45646,981.5698
2010/1/12 17:00,2.12,260.9,3.692,45.47,385.3122,871.3386,23.81765,981.3208
2010/1/12 18:00,1.445,259.1,3.44,53.17,254.3678,591.1865,16.92662,981.1963
2010/1/12 19:00,1.172,17.24,3.609,49.03,182.6944,420.7985,12.18239,980.9473
2010/1/12 20:00,2.117,101,3.19,47.84,119.7781,271.5798,8.182612,980.8228
2010/1/12 21:00,2.752,104.7,2.142,42.17,79.50338,172.8899,5.339029,981.0718
2010/1/12 22:00,4.301,122,1.598,33.86,84.1759,152.9898,3.267649,981.4453
2010/1/12 23:00,5.244,129.7,0.968,34.71,52.5596,88.60464,1.780487,981.3208
2010/1/13 0:00,5.894,136.9,-0.034,40.66,17.72572,37.48041,0.9971258,981.3208
2010/1/13 1:00,6.225,136.4,-0.58,44.84,10.07729,25.47766,0.7431312,981.8239
2010/1/13 2:00,6.346,136,-0.787,49.94,15.78619,35.0424,0.9987546,982.3259
2010/1/13 3:00,5.059,123.2,-0.723,54.03,25.85309,58.81825,1.805509,982.5754
2010/1/13 4:00,4.336,119.6,-0.419,53.86,35.04315,88.27531,3.415469,982.7
2010/1/13 5:00,3.263,122.7,0.183,52.44,95.8376,195.7915,5.322669,982.8246
2010/1/13 6:00,2.227,114,1.019,51.18,155.5282,323.5305,7.983213,982.9491
2010/1/13 7:00,1.281,250.6,1.103,60.13,223.0362,475.3263,12.07696,983.0737
2010/1/13 8:00,1.325,313.8,1.943,51.28,364.9849,743.6261,19.40655,983.1982
2010/1/13 9:00,1.82,301.8,2.445,46.59,602.3445,1145.011,28.61419,983.4474
2010/1/13 10:00,2.15,306.1,2.653,50.76,645.7135,1279.252,32.68484,983.8212
2010/1/13 11:00,2.091,307.5,3.081,50.95,607.8283,1220.247,34.37445,983.564
2010/1/13 12:00,2.253,295.3,3.571,44.05,779.131,1507.54,40.38247,983.6862
2010/1/13 13:00,2.227,251.1,3.818,44.11,789.4606,1537.897,41.38315,983.5616
2010/1/13 14:00,2.226,255,3.902,43.84,754.795,1504.077,40.40745,983.5616
2010/1/13 15:00,2.277,258.5,3.897,45.91,728.608,1381.765,37.75725,983.5616
2010/1/13 16:00,2.041,236.1,3.62,47.5,653.8355,1272.162,33.51098,983.5616
2010/1/13 17:00,2.55,262.7,4.248,44.41,563.3011,1089.763,28.10995,983.5616
2010/1/13 18:00,2.356,250,3.861,44.99,458.3158,879.5892,22.07083,983.3126
2010/1/13 19:00,1.943,234.9,3.486,42.85,346.6476,661.3215,16.01746,983.4371
2010/1/13 20:00,1.774,261.2,3.438,43.09,240.8776,453.6845,10.62114,983.9351
2010/1/13 21:00,1.31,321.1,1.834,53.44,146.4914,274.7581,6.377029,984.4331
2010/1/13 22:00,1.366,324.89,0.954,67.19,74.6751,141.0278,3.471303,985.0555
2010/1/13 23:00,1.274,16.37,1.058,50.69,29.49652,60.98475,1.779671,985.8025
2010/1/14 0:00,2.845,110.7,0.13,49,7.96853,26.88933,0.9549795,986.4249
2010/1/14 1:00,3.154,110.5,-0.541,49.71,5.743222,20.7091,0.7297159,986.923
2010/1/14 2:00,3.873,110.4,-1.08,48.17,7.098161,25.88296,0.947356,987.5454
2010/1/14 3:00,3.675,109.7,-1.215,46.74,11.38403,41.08208,1.745318,987.6866
2010/1/14 4:00,3.241,106.2,-0.869,44.61,17.20649,62.86098,3.320446,988.1814